This is the latest recevied weather packets stored in our database for station/object VR2R-13. If no packets are shown the sender has not sent any weather packets the latest 1 day(s).
| Time | Temp. | Humidity | Pressure | Rain* | Wind** | Luminosity | Snow |
|---|---|---|---|---|---|---|---|
| 1778060872 | 18.89° C | 98% | 913.1 hPa | 0 mm | 0.45 m/s, 227° | - | - |
| 1778060572 | 18.89° C | 98% | 913.1 hPa | 0 mm | 2.24 m/s, 141° | - | - |
| 1778060513 | 18.33° C | 98% | 913.1 hPa | 0 mm | 1.79 m/s, 140° | - | - |
| 1778060272 | 18.89° C | 98% | 913.1 hPa | 0 mm | 2.24 m/s, 170° | - | - |
| 1778060153 | 18.33° C | 98% | 913.1 hPa | 0 mm | 1.34 m/s, 148° | - | - |
| 1778059972 | 18.33° C | 98% | 913 hPa | 0 mm | 0 m/s | - | - |
| 1778059793 | 18.33° C | 98% | 913 hPa | 0 mm | 2.24 m/s, 142° | - | - |
| 1778059672 | 18.33° C | 98% | 913 hPa | 0 mm | 2.24 m/s, 151° | - | - |
| 1778059436 | 18.33° C | 98% | 913 hPa | 0 mm | 2.24 m/s, 169° | - | - |
| 1778059372 | 18.33° C | 98% | 913.1 hPa | 0 mm | 1.79 m/s, 179° | - | - |
| 1778059074 | 18.33° C | 98% | 913.1 hPa | 0 mm | 2.24 m/s, 130° | - | - |
| 1778059072 | 18.33° C | 98% | 913.1 hPa | 0 mm | 2.24 m/s, 137° | - | - |
| 1778058772 | 18.33° C | 98% | 913.1 hPa | 0 mm | 2.24 m/s, 159° | - | - |
| 1778058713 | 18.33° C | 98% | 913.1 hPa | 0 mm | 2.24 m/s, 153° | - | - |
| 1778058353 | 18.33° C | 98% | 913 hPa | 0 mm | 2.24 m/s, 68° | - | - |
| 1778058172 | 18.33° C | 98% | 913 hPa | 0 mm | 1.79 m/s, 189° | - | - |
| 1778057993 | 18.33° C | 98% | 913.1 hPa | 0 mm | 2.24 m/s, 102° | - | - |
| 1778057874 | 18.33° C | 98% | 913.1 hPa | 0 mm | 0.89 m/s, 82° | - | - |
| 1778057572 | 17.78° C | 98% | 913.1 hPa | 0 mm | 1.79 m/s, 79° | - | - |
| 1778057274 | 18.33° C | 98% | 913.1 hPa | 0 mm | 2.24 m/s, 143° | - | - |
| 1778057273 | 18.33° C | 98% | 913.1 hPa | 0 mm | 2.24 m/s, 146° | - | - |
| 1778056973 | 17.78° C | 98% | 913 hPa | 0 mm | 1.34 m/s, 114° | - | - |
| 1778056913 | 17.78° C | 98% | 913 hPa | 0 mm | 0.45 m/s, 124° | - | - |
| 1778056671 | 17.78° C | 98% | 913.1 hPa | 0 mm | 2.24 m/s, 112° | - | - |
| 1778056553 | 17.78° C | 98% | 913.1 hPa | 0 mm | 0 m/s | - | - |
* Rain latest hour (hover to see other rain measurements)
** Current wind speed in m/s (hover to see current wind gust speed)